Terminal Aerodrome Forecast
Issued by NWS

Home | Current Version | Previous Version | Text Only | Print | Product List | Glossary On
Versions: 1 2 3 4 5 6 7 8 9 10 11 12 13 14 15 16 17 18 19
000
FTUS45 KBOU 252329
TAFBJC
TAF
KBJC 252329Z 2600/2624 08007KT P6SM SKC
     FM260200 VRB04KT P6SM SKC
     FM260500 25008KT P6SM FEW140 SCT250
     FM261800 27012KT P6SM SCT140 BKN200=

USA.gov is the U.S. government's official web portal to all federal, state and local government web resources and services.